• In Czech Republic
  • List of Countries
  • For 7 days
  • Water Temperature
  • Satellite Maps
  • Weather Map
  • Weather Widgets
  • user-avatar
    Login

    Hourly Weather Garoua

    Today, 12 December, Tuesday

    Time Temperature Precipitation Wind Pressure Humidity
    00:00 +28°C° 0 mm 1 mps 742 mmHg 24%
    01:00 +27°C° 0 mm 1 mps 742 mmHg 24%
    02:00 +27°C° 0 mm 1 mps 742 mmHg 25%
    03:00 +26°C° 0 mm 1 mps 742 mmHg 26%
    04:00 +26°C° 0 mm 1 mps 742 mmHg 26%
    05:00 +24°C° 0 mm 0 mps 743 mmHg 26%
    06:00 +24°C° 0 mm 0 mps 743 mmHg 27%
    07:00 +24°C° 0 mm 0 mps 743 mmHg 25%
    08:00 +27°C° 0 mm 0 mps 744 mmHg 22%
    09:00 +30°C° 0 mm 0 mps 744 mmHg 18%
    10:00 +33°C° 0 mm 0 mps 744 mmHg 15%
    11:00 +37°C° 0 mm 1 mps 743 mmHg 13%
    12:00 +39°C° 0 mm 1 mps 742 mmHg 12%
    13:00 +40°C° 0 mm 2 mps 742 mmHg 10%
    14:00 +41°C° 0 mm 2 mps 741 mmHg 11%
    15:00 +41°C° 0 mm 2 mps 741 mmHg 11%
    16:00 +42°C° 0 mm 3 mps 740 mmHg 11%
    17:00 +39°C° 0 mm 2 mps 740 mmHg 13%
    18:00 +37°C° 0 mm 2 mps 741 mmHg 15%
    19:00 +35°C° 0 mm 2 mps 741 mmHg 17%
    20:00 +33°C° 0 mm 1 mps 741 mmHg 17%
    21:00 +32°C° 0 mm 1 mps 742 mmHg 18%
    22:00 +31°C° 0 mm 1 mps 742 mmHg 19%
    23:00 +31°C° 0 mm 1 mps 742 mmHg 19%

    Tomorrow, 13 December, Wednesday

    Time Temperature Precipitation Wind Pressure Humidity
    00:00 +30°C° 0 mm 1 mps 742 mmHg 20%
    01:00 +29°C° 0 mm 1 mps 742 mmHg 21%
    02:00 +29°C° 0 mm 1 mps 742 mmHg 22%
    03:00 +28°C° 0 mm 1 mps 742 mmHg 23%
    04:00 +27°C° 0 mm 1 mps 742 mmHg 23%
    05:00 +27°C° 0 mm 1 mps 742 mmHg 24%
    06:00 +27°C° 0 mm 1 mps 742 mmHg 24%
    07:00 +27°C° 0 mm 1 mps 743 mmHg 25%
    08:00 +30°C° 0 mm 1 mps 743 mmHg 21%
    09:00 +34°C° 0 mm 2 mps 743 mmHg 17%
    10:00 +37°C° 0 mm 3 mps 743 mmHg 14%
    11:00 +40°C° 0 mm 4 mps 743 mmHg 12%
    12:00 +41°C° 0 mm 4 mps 742 mmHg 11%
    13:00 +43°C° 0 mm 5 mps 741 mmHg 10%
    14:00 +43°C° 0 mm 5 mps 741 mmHg 10%
    15:00 +43°C° 0 mm 4 mps 740 mmHg 9%
    16:00 +43°C° 0 mm 4 mps 739 mmHg 9%
    17:00 +40°C° 0 mm 3 mps 740 mmHg 11%
    18:00 +37°C° 0 mm 2 mps 740 mmHg 12%
    19:00 +34°C° 0 mm 1 mps 740 mmHg 14%
    20:00 +33°C° 0 mm 1 mps 741 mmHg 14%
    21:00 +32°C° 0 mm 2 mps 741 mmHg 14%
    22:00 +32°C° 0 mm 2 mps 742 mmHg 15%
    23:00 +31°C° 0 mm 2 mps 742 mmHg 16%

    Day after tomorrow, 14 December, Thursday

    Time Temperature Precipitation Wind Pressure Humidity
    00:00 +30°C° 0 mm 2 mps 741 mmHg 17%
    01:00 +30°C° 0 mm 1 mps 741 mmHg 18%
    02:00 +29°C° 0 mm 1 mps 741 mmHg 19%
    03:00 +28°C° 0 mm 1 mps 741 mmHg 20%
    04:00 +28°C° 0 mm 1 mps 741 mmHg 20%
    05:00 +28°C° 0 mm 1 mps 742 mmHg 21%
    06:00 +27°C° 0 mm 1 mps 742 mmHg 22%
    07:00 +27°C° 0 mm 1 mps 743 mmHg 22%
    08:00 +30°C° 0 mm 1 mps 743 mmHg 19%
    09:00 +34°C° 0 mm 2 mps 743 mmHg 16%
    10:00 +37°C° 0 mm 3 mps 744 mmHg 13%
    11:00 +39°C° 0 mm 3 mps 743 mmHg 12%
    12:00 +40°C° 0 mm 3 mps 742 mmHg 10%
    13:00 +43°C° 0 mm 4 mps 741 mmHg 9%
    14:00 +43°C° 0 mm 3 mps 740 mmHg 9%
    15:00 +43°C° 0 mm 3 mps 739 mmHg 9%
    16:00 +43°C° 0 mm 3 mps 739 mmHg 9%
    17:00 +39°C° 0 mm 3 mps 739 mmHg 10%
    18:00 +37°C° 0 mm 2 mps 739 mmHg 12%
    19:00 +34°C° 0 mm 1 mps 740 mmHg 13%
    20:00 +33°C° 0 mm 1 mps 740 mmHg 14%
    21:00 +32°C° 0 mm 1 mps 741 mmHg 14%
    22:00 +32°C° 0 mm 1 mps 741 mmHg 15%
    23:00 +31°C° 0 mm 1 mps 741 mmHg 16%

    15 December, Friday

    Time Temperature Precipitation Wind Pressure Humidity
    00:00 +30°C° 0 mm 1 mps 741 mmHg 16%
    01:00 +30°C° 0 mm 1 mps 741 mmHg 17%
    02:00 +29°C° 0 mm 1 mps 740 mmHg 18%
    03:00 +28°C° 0 mm 1 mps 740 mmHg 18%
    04:00 +28°C° 0 mm 1 mps 740 mmHg 19%
    05:00 +27°C° 0 mm 1 mps 741 mmHg 19%
    06:00 +27°C° 0 mm 1 mps 741 mmHg 20%
    07:00 +27°C° 0 mm 1 mps 741 mmHg 20%
    08:00 +30°C° 0 mm 1 mps 742 mmHg 16%
    09:00 +34°C° 0 mm 2 mps 742 mmHg 13%
    10:00 +37°C° 0 mm 2 mps 742 mmHg 9%
    11:00 +39°C° 0 mm 2 mps 742 mmHg 8%
    12:00 +40°C° 0 mm 2 mps 741 mmHg 8%
    13:00 +42°C° 0 mm 2 mps 740 mmHg 7%
    14:00 +42°C° 0 mm 2 mps 739 mmHg 7%
    15:00 +42°C° 0 mm 2 mps 739 mmHg 7%
    16:00 +42°C° 0 mm 2 mps 738 mmHg 7%
    17:00 +39°C° 0 mm 2 mps 739 mmHg 8%
    18:00 +36°C° 0 mm 1 mps 739 mmHg 10%
    19:00 +34°C° 0 mm 1 mps 740 mmHg 11%
    20:00 +33°C° 0 mm 1 mps 740 mmHg 12%
    21:00 +32°C° 0 mm 1 mps 741 mmHg 12%
    22:00 +31°C° 0 mm 1 mps 741 mmHg 13%
    23:00 +31°C° 0 mm 1 mps 741 mmHg 13%

    16 December, Saturday

    Time Temperature Precipitation Wind Pressure Humidity
    00:00 +30°C° 0 mm 1 mps 741 mmHg 14%
    01:00 +29°C° 0 mm 1 mps 740 mmHg 14%
    02:00 +28°C° 0 mm 1 mps 740 mmHg 15%
    03:00 +27°C° 0 mm 1 mps 740 mmHg 16%
    04:00 +25°C° 0 mm 0 mps 740 mmHg 17%
    05:00 +24°C° 0 mm 0 mps 741 mmHg 17%
    06:00 +24°C° 0 mm 0 mps 741 mmHg 18%
    07:00 +24°C° 0 mm 0 mps 742 mmHg 18%
    08:00 +29°C° 0 mm 1 mps 742 mmHg 15%
    09:00 +32°C° 0 mm 1 mps 742 mmHg 12%
    10:00 +35°C° 0 mm 1 mps 743 mmHg 10%
    11:00 +37°C° 0 mm 1 mps 742 mmHg 9%
    12:00 +40°C° 0 mm 1 mps 741 mmHg 8%
    13:00 +42°C° 0 mm 1 mps 740 mmHg 7%
    14:00 +41°C° 0 mm 1 mps 740 mmHg 7%
    15:00 +41°C° 0 mm 1 mps 739 mmHg 8%
    16:00 +41°C° 0 mm 1 mps 739 mmHg 8%
    17:00 +39°C° 0 mm 1 mps 739 mmHg 9%
    18:00 +35°C° 0 mm 1 mps 740 mmHg 10%
    19:00 +33°C° 0 mm 1 mps 740 mmHg 12%
    20:00 +32°C° 0 mm 1 mps 741 mmHg 12%
    21:00 +31°C° 0 mm 1 mps 741 mmHg 13%
    22:00 +31°C° 0 mm 1 mps 741 mmHg 13%
    23:00 +30°C° 0 mm 1 mps 741 mmHg 14%

    17 December, Sunday

    Time Temperature Precipitation Wind Pressure Humidity
    00:00 +29°C° 0 mm 1 mps 741 mmHg 14%
    01:00 +28°C° 0 mm 1 mps 741 mmHg 15%
    02:00 +28°C° 0 mm 1 mps 741 mmHg 16%
    03:00 +27°C° 0 mm 1 mps 741 mmHg 17%
    04:00 +24°C° 0 mm 0 mps 741 mmHg 18%
    05:00 +24°C° 0 mm 0 mps 741 mmHg 19%
    06:00 +24°C° 0 mm 0 mps 741 mmHg 19%
    07:00 +24°C° 0 mm 0 mps 742 mmHg 20%
    08:00 +29°C° 0 mm 1 mps 742 mmHg 17%
    09:00 +32°C° 0 mm 1 mps 742 mmHg 14%
    10:00 +35°C° 0 mm 1 mps 742 mmHg 11%
    11:00 +37°C° 0 mm 1 mps 741 mmHg 10%
    12:00 +41°C° 0 mm 1 mps 741 mmHg 9%
    13:00 +43°C° 0 mm 1 mps 740 mmHg 7%
    14:00 +42°C° 0 mm 1 mps 739 mmHg 8%
    15:00 +42°C° 0 mm 1 mps 739 mmHg 8%
    16:00 +41°C° 0 mm 1 mps 738 mmHg 8%
    17:00 +39°C° 0 mm 1 mps 739 mmHg 9%
    18:00 +36°C° 0 mm 1 mps 739 mmHg 11%
    19:00 +33°C° 0 mm 1 mps 740 mmHg 12%
    20:00 +33°C° 0 mm 1 mps 740 mmHg 13%
    21:00 +32°C° 0 mm 1 mps 741 mmHg 13%
    22:00 +31°C° 0 mm 1 mps 741 mmHg 14%
    23:00 +30°C° 0 mm 1 mps 741 mmHg 15%
    Show more